{"data":{"norad_id":56508,"intl_designator":"2023-065F","name":"STARLINK-5335","alt_names":[],"object_type":"PAYLOAD","status":"ACTIVE","operator":null,"country":"US","launch_date":"2023-05-14","launch_site_code":"AFETR","launch_vehicle":null,"mission":null,"orbit_class":"UNKNOWN","rcs_meters":null,"size_class":null,"mass_kg":null,"dimensions":null,"purposes":["comms"],"wikipedia_slug":null,"has_3d_model":false,"image_url":null,"decayed_at":null,"tle_current":{"epoch":"2026-05-24T23:47:51.319680Z","epoch_age_seconds":69664,"freshness":"FRESH","line1":"1 56508U 23065F   26144.99156620  .00001162  00000+0  51748-4 0  9993","line2":"2 56508  43.0032 141.1808 0001493 264.5482  95.5200 15.27578951168274","mean_motion":15.27578951,"eccentricity":0.0001493,"inclination_deg":43.0032,"raan_deg":141.1808,"arg_perigee_deg":264.5482,"mean_anomaly_deg":95.52,"bstar":5.1748e-5,"rev_number":16827,"period_min":94.26681344734,"perigee_km":482.02786157172,"apogee_km":484.07661267793,"semimajor_km":6861.1892371248,"source":"CELESTRAK","updated_at":"2026-05-25T13:38:18.078526Z"}}}